When you browse on this site, cookies collect data to enhance your experience and personalize the content and advertising you see.
Visit our Privacy Policy to learn more. By continuing to use the site, you agree to this use of cookies and data.
  • In Latvia
  • List of Countries
  • For 7 days
  • Water Temperature
  • Satellite Maps
  • Weather Map
  • Weather Widgets
  • user-avatar
    Login

    Hourly Weather Melbourne

    Today, 21 April, Sunday

    Time Temperature Precipitation Wind Pressure Humidity
    00:00 +22°C° 0 mm 4 mps 762 mmHg 47%
    01:00 +22°C° 0 mm 4 mps 762 mmHg 47%
    02:00 +22°C° 0 mm 4 mps 762 mmHg 47%
    03:00 +22°C° 0 mm 4 mps 762 mmHg 47%
    04:00 +22°C° 0 mm 6 mps 761 mmHg 45%
    05:00 +22°C° 0 mm 6 mps 761 mmHg 46%
    06:00 +22°C° 0 mm 6 mps 761 mmHg 47%
    07:00 +22°C° 0 mm 6 mps 762 mmHg 48%
    08:00 +23°C° 0 mm 6 mps 762 mmHg 47%
    09:00 +24°C° 0 mm 6 mps 762 mmHg 45%
    10:00 +26°C° 0 mm 7 mps 762 mmHg 41%
    11:00 +27°C° 0 mm 6 mps 762 mmHg 41%
    12:00 +28°C° 0 mm 6 mps 762 mmHg 40%
    13:00 +29°C° 0 mm 6 mps 761 mmHg 39%
    14:00 +29°C° 0 mm 5 mps 761 mmHg 39%
    15:00 +29°C° 0 mm 5 mps 761 mmHg 40%
    16:00 +28°C° 0 mm 4 mps 761 mmHg 41%
    17:00 +27°C° 0 mm 4 mps 761 mmHg 44%
    18:00 +26°C° 0 mm 3 mps 762 mmHg 47%
    19:00 +25°C° 0 mm 3 mps 762 mmHg 50%
    20:00 +22°C° 0 mm 3 mps 763 mmHg 60%
    21:00 +20°C° 0 mm 4 mps 763 mmHg 69%
    22:00 +19°C° 0 mm 4 mps 764 mmHg 79%
    23:00 +18°C° 0 mm 3 mps 764 mmHg 78%

    Tomorrow, 22 April, Monday

    Time Temperature Precipitation Wind Pressure Humidity
    00:00 +18°C° 0 mm 3 mps 765 mmHg 77%
    01:00 +18°C° 0 mm 3 mps 765 mmHg 77%
    02:00 +17°C° 0 mm 3 mps 765 mmHg 77%
    03:00 +17°C° 0 mm 3 mps 765 mmHg 77%
    04:00 +17°C° 0 mm 3 mps 765 mmHg 78%
    05:00 +17°C° 0 mm 3 mps 766 mmHg 77%
    06:00 +16°C° 0 mm 3 mps 766 mmHg 77%
    07:00 +16°C° 0 mm 3 mps 766 mmHg 76%
    08:00 +16°C° 0 mm 3 mps 767 mmHg 73%
    09:00 +17°C° 0 mm 3 mps 767 mmHg 70%
    10:00 +17°C° 0 mm 3 mps 767 mmHg 67%
    11:00 +18°C° 0 mm 3 mps 767 mmHg 64%
    12:00 +18°C° 0 mm 3 mps 767 mmHg 61%
    13:00 +19°C° 0 mm 4 mps 767 mmHg 58%
    14:00 +19°C° 0 mm 4 mps 767 mmHg 58%
    15:00 +19°C° 0 mm 3 mps 767 mmHg 58%
    16:00 +18°C° 0 mm 3 mps 767 mmHg 58%
    17:00 +18°C° 0 mm 3 mps 767 mmHg 61%
    18:00 +17°C° 0 mm 4 mps 768 mmHg 63%
    19:00 +15°C° 0 mm 4 mps 769 mmHg 66%
    20:00 +16°C° 0 mm 3 mps 769 mmHg 68%
    21:00 +16°C° 0 mm 3 mps 769 mmHg 69%
    22:00 +15°C° 0 mm 2 mps 770 mmHg 71%
    23:00 +15°C° 0 mm 2 mps 769 mmHg 73%

    Day after tomorrow, 23 April, Tuesday

    Time Temperature Precipitation Wind Pressure Humidity
    00:00 +14°C° 0 mm 2 mps 769 mmHg 75%
    01:00 +14°C° 0 mm 2 mps 769 mmHg 78%
    02:00 +14°C° 0 mm 2 mps 769 mmHg 79%
    03:00 +14°C° 0 mm 2 mps 769 mmHg 81%
    04:00 +13°C° 0 mm 2 mps 769 mmHg 82%
    05:00 +14°C° 0 mm 2 mps 769 mmHg 81%
    06:00 +14°C° 0 mm 2 mps 769 mmHg 81%
    07:00 +14°C° 0 mm 1 mps 770 mmHg 80%
    08:00 +15°C° 0 mm 1 mps 770 mmHg 75%
    09:00 +16°C° 0 mm 1 mps 770 mmHg 71%
    10:00 +18°C° 0 mm 1 mps 770 mmHg 67%
    11:00 +18°C° 0 mm 2 mps 770 mmHg 63%
    12:00 +19°C° 0 mm 2 mps 769 mmHg 60%
    13:00 +21°C° 0 mm 3 mps 769 mmHg 56%
    14:00 +20°C° 0 mm 3 mps 769 mmHg 58%
    15:00 +20°C° 0 mm 3 mps 768 mmHg 61%
    16:00 +19°C° 0 mm 3 mps 768 mmHg 63%
    17:00 +18°C° 0 mm 3 mps 768 mmHg 68%
    18:00 +17°C° 0 mm 3 mps 769 mmHg 73%
    19:00 +16°C° 0 mm 2 mps 769 mmHg 78%
    20:00 +15°C° 0 mm 2 mps 769 mmHg 80%
    21:00 +15°C° 0 mm 2 mps 769 mmHg 82%
    22:00 +14°C° 0 mm 1 mps 769 mmHg 84%
    23:00 +14°C° 0 mm 1 mps 769 mmHg 84%

    24 April, Wednesday

    Time Temperature Precipitation Wind Pressure Humidity
    00:00 +13°C° 0 mm 1 mps 769 mmHg 85%
    01:00 +13°C° 0 mm 1 mps 769 mmHg 86%
    02:00 +13°C° 0 mm 1 mps 768 mmHg 87%
    03:00 +13°C° 0 mm 1 mps 768 mmHg 87%
    04:00 +11°C° 0 mm 0 mps 768 mmHg 88%
    05:00 +11°C° 0 mm 0 mps 768 mmHg 88%
    06:00 +12°C° 0 mm 1 mps 768 mmHg 89%
    07:00 +12°C° 0 mm 1 mps 768 mmHg 89%
    08:00 +13°C° 0 mm 0 mps 768 mmHg 82%
    09:00 +14°C° 0 mm 0 mps 768 mmHg 75%
    10:00 +16°C° 0 mm 0 mps 768 mmHg 67%
    11:00 +20°C° 0 mm 1 mps 767 mmHg 60%
    12:00 +21°C° 0 mm 1 mps 767 mmHg 52%
    13:00 +23°C° 0 mm 1 mps 766 mmHg 45%
    14:00 +23°C° 0 mm 1 mps 766 mmHg 43%
    15:00 +23°C° 0 mm 2 mps 765 mmHg 41%
    16:00 +23°C° 0 mm 2 mps 765 mmHg 40%
    17:00 +21°C° 0 mm 1 mps 765 mmHg 44%
    18:00 +20°C° 0 mm 1 mps 766 mmHg 48%
    19:00 +16°C° 0 mm 0 mps 766 mmHg 53%
    20:00 +18°C° 0 mm 1 mps 766 mmHg 56%
    21:00 +16°C° 0 mm 1 mps 766 mmHg 59%
    22:00 +15°C° 0 mm 1 mps 767 mmHg 63%
    23:00 +15°C° 0 mm 2 mps 766 mmHg 67%

    25 April, Thursday

    Time Temperature Precipitation Wind Pressure Humidity
    00:00 +15°C° 0 mm 2 mps 766 mmHg 71%
    01:00 +14°C° 0 mm 2 mps 766 mmHg 75%
    02:00 +14°C° 0 mm 2 mps 765 mmHg 76%
    03:00 +13°C° 0 mm 2 mps 765 mmHg 77%
    04:00 +13°C° 0 mm 2 mps 765 mmHg 79%
    05:00 +13°C° 0 mm 2 mps 765 mmHg 80%
    06:00 +13°C° 0 mm 2 mps 765 mmHg 81%
    07:00 +12°C° 0 mm 2 mps 765 mmHg 83%
    08:00 +13°C° 0 mm 3 mps 765 mmHg 76%
    09:00 +16°C° 0 mm 3 mps 765 mmHg 70%
    10:00 +18°C° 0 mm 3 mps 765 mmHg 64%
    11:00 +19°C° 0 mm 3 mps 765 mmHg 58%
    12:00 +20°C° 0 mm 3 mps 764 mmHg 52%
    13:00 +21°C° 0 mm 3 mps 763 mmHg 45%
    14:00 +22°C° 0 mm 4 mps 763 mmHg 44%
    15:00 +22°C° 0 mm 4 mps 762 mmHg 44%
    16:00 +22°C° 0 mm 4 mps 762 mmHg 43%
    17:00 +20°C° 0 mm 4 mps 762 mmHg 49%
    18:00 +19°C° 0 mm 4 mps 762 mmHg 54%
    19:00 +18°C° 0 mm 3 mps 762 mmHg 60%
    20:00 +17°C° 0 mm 4 mps 762 mmHg 62%
    21:00 +17°C° 0 mm 4 mps 762 mmHg 64%
    22:00 +15°C° 0 mm 4 mps 762 mmHg 66%
    23:00 +15°C° 0 mm 5 mps 762 mmHg 68%

    26 April, Friday

    Time Temperature Precipitation Wind Pressure Humidity
    00:00 +14°C° 0 mm 5 mps 761 mmHg 70%
    01:00 +14°C° 0 mm 5 mps 761 mmHg 72%
    02:00 +14°C° 0 mm 5 mps 761 mmHg 71%
    03:00 +14°C° 0 mm 5 mps 760 mmHg 70%
    04:00 +13°C° 0 mm 5 mps 760 mmHg 69%
    05:00 +14°C° 0.1 mm 5 mps 760 mmHg 69%
    06:00 +14°C° 0.1 mm 5 mps 761 mmHg 68%
    07:00 +14°C° 0.1 mm 5 mps 761 mmHg 67%
    08:00 +14°C° 0.1 mm 6 mps 761 mmHg 63%
    09:00 +14°C° 0.1 mm 6 mps 762 mmHg 60%
    10:00 +14°C° 0.1 mm 7 mps 762 mmHg 57%
    11:00 +14°C° 0 mm 7 mps 762 mmHg 55%
    12:00 +14°C° 0 mm 6 mps 762 mmHg 53%
    13:00 +14°C° 0 mm 6 mps 762 mmHg 52%
    14:00 +14°C° 0 mm 6 mps 762 mmHg 51%
    15:00 +13°C° 0 mm 6 mps 762 mmHg 51%
    16:00 +13°C° 0 mm 6 mps 762 mmHg 51%
    17:00 +13°C° 0 mm 6 mps 763 mmHg 54%
    18:00 +12°C° 0 mm 5 mps 763 mmHg 56%
    19:00 +12°C° 0 mm 5 mps 764 mmHg 59%
    20:00 +10°C° 0 mm 5 mps 764 mmHg 61%
    21:00 +10°C° 0 mm 5 mps 765 mmHg 63%
    22:00 +10°C° 0 mm 5 mps 765 mmHg 65%
    23:00 +10°C° 0 mm 5 mps 765 mmHg 65%
    Show more